TimeCST,TemperatureF,Dew PointF,Humidity,Sea Level PressureIn,VisibilityMPH,Wind Direction,Wind SpeedMPH,Gust SpeedMPH,PrecipitationIn,Events,Conditions,WindDirDegrees,DateUTC
12:15 AM,12.2,5.0,73,30.04,10.0,NW,15.0,25.3,N/A,,Overcast,310,2012-12-10 06:15:00
12:55 AM,12.2,3.2,67,30.04,10.0,NW,12.7,21.9,N/A,,Overcast,310,2012-12-10 06:55:00
1:15 AM,12.2,3.2,67,30.03,10.0,NW,12.7,19.6,N/A,,Overcast,320,2012-12-10 07:15:00
1:55 AM,12.2,3.2,67,30.04,10.0,NW,13.8,24.2,N/A,,Overcast,310,2012-12-10 07:55:00
2:15 AM,12.2,3.2,67,30.04,10.0,NW,15.0,23.0,N/A,,Overcast,310,2012-12-10 08:15:00
2:35 AM,12.2,3.2,67,30.05,10.0,WNW,15.0,23.0,N/A,,Overcast,300,2012-12-10 08:35:00
2:55 AM,10.4,1.4,67,30.05,10.0,NW,13.8,-,N/A,,Overcast,310,2012-12-10 08:55:00
3:15 AM,10.4,1.4,67,30.05,10.0,NW,10.4,-,N/A,,Overcast,310,2012-12-10 09:15:00
3:35 AM,10.4,1.4,67,30.04,10.0,NW,12.7,-,N/A,,Overcast,310,2012-12-10 09:35:00
3:55 AM,10.4,1.4,67,30.04,10.0,NW,10.4,-,N/A,,Overcast,320,2012-12-10 09:55:00
4:15 AM,10.4,1.4,67,30.04,10.0,NW,12.7,19.6,N/A,,Overcast,310,2012-12-10 10:15:00
4:55 AM,6.8,-2.2,67,30.03,10.0,NW,10.4,-,N/A,,Mostly Cloudy,320,2012-12-10 10:55:00
5:35 AM,5.0,-2.2,72,30.03,10.0,WNW,10.4,-,N/A,,Partly Cloudy,300,2012-12-10 11:35:00
5:55 AM,5.0,-2.2,72,30.02,10.0,NW,11.5,17.3,N/A,,Clear,310,2012-12-10 11:55:00
6:15 AM,5.0,-2.2,72,30.03,10.0,NW,10.4,16.1,N/A,,Clear,310,2012-12-10 12:15:00
6:55 AM,5.0,-2.2,72,30.04,10.0,WNW,11.5,-,N/A,,Clear,290,2012-12-10 12:55:00
7:15 AM,3.2,-2.2,78,30.04,10.0,NW,11.5,-,N/A,,Clear,310,2012-12-10 13:15:00
7:35 AM,3.2,-2.2,78,30.04,10.0,NW,9.2,15.0,N/A,,Clear,310,2012-12-10 13:35:00
7:55 AM,3.2,-4.0,72,30.03,10.0,NW,8.1,-,N/A,,Clear,310,2012-12-10 13:55:00
8:15 AM,3.2,-2.2,78,30.03,10.0,WNW,6.9,-,N/A,,Clear,290,2012-12-10 14:15:00
8:35 AM,5.0,-2.2,72,30.03,10.0,WNW,5.8,-,N/A,,Clear,300,2012-12-10 14:35:00
8:55 AM,5.0,-2.2,72,30.04,10.0,WNW,9.2,-,N/A,,Clear,290,2012-12-10 14:55:00
9:15 AM,6.8,-2.2,67,30.04,10.0,WNW,8.1,-,N/A,,Clear,300,2012-12-10 15:15:00
9:35 AM,8.6,-0.4,67,30.04,10.0,Variable,6.9,-,N/A,,Clear,0,2012-12-10 15:35:00
9:55 AM,8.6,-0.4,67,30.04,10.0,WNW,6.9,-,N/A,,Clear,290,2012-12-10 15:55:00
10:15 AM,10.4,-0.4,62,30.04,10.0,Variable,6.9,-,N/A,,Clear,0,2012-12-10 16:15:00
10:35 AM,12.2,-0.4,57,30.04,10.0,Variable,6.9,-,N/A,,Clear,0,2012-12-10 16:35:00
10:55 AM,14.0,1.4,57,30.04,10.0,WNW,8.1,-,N/A,,Clear,290,2012-12-10 16:55:00
11:15 AM,15.8,1.4,53,30.03,10.0,West,8.1,-,N/A,,Clear,280,2012-12-10 17:15:00
11:35 AM,17.6,3.2,53,30.02,10.0,West,8.1,-,N/A,,Clear,260,2012-12-10 17:35:00
11:55 AM,19.4,3.2,49,30.00,10.0,Variable,6.9,12.7,N/A,,Clear,0,2012-12-10 17:55:00
12:15 PM,19.4,1.4,46,29.99,10.0,SW,9.2,-,N/A,,Clear,230,2012-12-10 18:15:00
12:35 PM,21.2,3.2,46,29.98,10.0,WSW,9.2,-,N/A,,Clear,240,2012-12-10 18:35:00
12:55 PM,23.0,3.2,43,29.98,10.0,West,11.5,-,N/A,,Clear,260,2012-12-10 18:55:00
1:15 PM,23.0,3.2,43,29.97,10.0,WSW,10.4,-,N/A,,Clear,240,2012-12-10 19:15:00
1:35 PM,23.0,1.4,39,29.95,10.0,SW,8.1,-,N/A,,Clear,230,2012-12-10 19:35:00
1:55 PM,24.8,1.4,36,29.94,10.0,WSW,6.9,-,N/A,,Clear,240,2012-12-10 19:55:00
2:15 PM,24.8,1.4,36,29.93,10.0,WSW,6.9,12.7,N/A,,Clear,240,2012-12-10 20:15:00
2:35 PM,24.8,1.4,36,29.92,10.0,Variable,4.6,11.5,N/A,,Clear,0,2012-12-10 20:35:00
2:55 PM,24.8,-0.4,34,29.91,10.0,SW,4.6,11.5,N/A,,Clear,220,2012-12-10 20:55:00
3:15 PM,26.6,1.4,34,29.90,10.0,South,6.9,-,N/A,,Clear,190,2012-12-10 21:15:00
3:35 PM,26.6,1.4,34,29.90,9.0,SSW,8.1,-,N/A,,Clear,200,2012-12-10 21:35:00
3:55 PM,24.8,-0.4,34,29.89,10.0,South,8.1,-,N/A,,Clear,190,2012-12-10 21:55:00
4:15 PM,24.8,1.4,36,29.89,10.0,South,8.1,-,N/A,,Clear,190,2012-12-10 22:15:00
4:35 PM,24.8,1.4,36,29.89,10.0,South,6.9,-,N/A,,Clear,190,2012-12-10 22:35:00
4:55 PM,23.0,1.4,39,29.89,10.0,South,5.8,-,N/A,,Clear,180,2012-12-10 22:55:00
5:15 PM,23.0,1.4,39,29.90,10.0,South,3.5,-,N/A,,Clear,170,2012-12-10 23:15:00
5:35 PM,19.4,1.4,46,29.91,10.0,SSW,5.8,-,N/A,,Clear,200,2012-12-10 23:35:00
5:55 PM,17.6,1.4,49,29.92,10.0,South,4.6,-,N/A,,Clear,190,2012-12-10 23:55:00
6:15 PM,15.8,1.4,53,29.92,10.0,South,5.8,-,N/A,,Clear,190,2012-12-11 00:15:00
6:35 PM,15.8,1.4,53,29.92,10.0,SSE,6.9,-,N/A,,Clear,160,2012-12-11 00:35:00
6:55 PM,15.8,3.2,58,29.91,10.0,SSE,6.9,-,N/A,,Clear,160,2012-12-11 00:55:00
7:15 PM,15.8,3.2,58,29.90,10.0,SSE,9.2,-,N/A,,Clear,160,2012-12-11 01:15:00
7:35 PM,17.6,3.2,53,29.90,10.0,South,9.2,-,N/A,,Clear,170,2012-12-11 01:35:00
7:55 PM,19.4,5.0,54,29.89,10.0,South,10.4,-,N/A,,Clear,170,2012-12-11 01:55:00
8:15 PM,19.4,5.0,54,29.89,10.0,South,10.4,-,N/A,,Clear,180,2012-12-11 02:15:00
8:35 PM,19.4,5.0,54,29.89,10.0,South,11.5,-,N/A,,Partly Cloudy,180,2012-12-11 02:35:00
8:55 PM,19.4,5.0,54,29.89,10.0,SSW,9.2,-,N/A,,Scattered Clouds,200,2012-12-11 02:55:00
9:15 PM,19.4,5.0,54,29.89,10.0,South,9.2,-,N/A,,Overcast,190,2012-12-11 03:15:00
9:35 PM,19.4,5.0,54,29.89,10.0,SSW,8.1,-,N/A,,Overcast,210,2012-12-11 03:35:00
9:55 PM,19.4,5.0,54,29.89,10.0,SSW,8.1,15.0,N/A,,Overcast,210,2012-12-11 03:55:00
10:15 PM,17.6,5.0,58,29.89,10.0,SSW,10.4,-,N/A,,Scattered Clouds,200,2012-12-11 04:15:00
10:35 PM,19.4,5.0,54,29.88,10.0,SSW,9.2,-,N/A,,Mostly Cloudy,200,2012-12-11 04:35:00
10:55 PM,19.4,5.0,54,29.88,10.0,SSW,5.8,-,N/A,,Overcast,200,2012-12-11 04:55:00
11:15 PM,21.2,6.8,54,29.88,10.0,SSW,9.2,-,N/A,,Overcast,210,2012-12-11 05:15:00
11:35 PM,23.0,5.0,46,29.88,10.0,SW,8.1,-,N/A,,Overcast,220,2012-12-11 05:35:00
11:55 PM,23.0,5.0,46,29.87,10.0,SW,9.2,-,N/A,,Overcast,220,2012-12-11 05:55:00